User: anonymous   Login
Location: Unspecified
(0.0000°N, 0.0000°E)
Time: 14:20:57
(UTC+00:00)
Language:

INTEGRAL - Orbit

View from above orbital plane
View from above orbital plane
View from above satellite
View from above satellite

Ground track
Ground track

The orbit data is extracted from the following two-line orbital elements,

1 27540U 02048A   19045.20921908 +.00001130 +00000-0 +00000-0 0  9997
2 27540 049.1004 152.7592 8706884 274.6161 004.4733 00.37595387016585
Epoch (UTC): 14 February 2019 05:01:16
Eccentricity: 0.8706884
inclination: 49.1004°
perigee height: 4108 km
apogee height: 145318 km
right ascension of ascending node: 152.7592°
argument of perigee: 274.6161°
revolutions per day: 0.37595387
mean anomaly at epoch: 4.4733°
orbit number at epoch: 1658

The dashed part of the orbit path shows where the satellite is in the earth's shadow,  

DLR